Regional Weather Roundup
Issued by NWS

Home | Current Version | Previous Version | Graphics & Text | Print | Product List | Glossary On
Versions: 1 2 3 4 5 6 7 8 9 10 11 12 13 14 15 16 17 18 19 20 21 22 23 24 25 26 27 28 29 30 31 32 33 34 35 36 37 38 39 40 41 42 43 44 45 46 47 48 49 50
000
ASUS43 KBIS 020320
RWRND

NORTH DAKOTA REGIONAL WEATHER ROUNDUP
NATIONAL WEATHER SERVICE BISMARCK ND
1000 PM CDT MON SEP 01 2014

NOTE: "FAIR" INDICATES FEW OR NO CLOUDS BELOW 12,000 FEET WITH NO
SIGNIFICANT WEATHER AND/OR OBSTRUCTIONS TO VISIBILITY.


NDZ001>003-009>011-017-020400-
NORTHWEST NORTH DAKOTA

CITY           SKY/WX    TMP DP  RH WIND       PRES   REMARKS
WILLISTON      CLOUDY    62  47  57 SW8       29.83R
MINOT          CLEAR     58  47  66 SW9       29.80R
MINOT AFB      CLEAR     54  49  84 W8        29.79R
$$

NDZ018>021-031>035-040>046-020400-
SOUTHWEST NORTH DAKOTA

CITY           SKY/WX    TMP DP  RH WIND       PRES   REMARKS
BISMARCK       PTCLDY    59  53  80 SW5       29.87R
DICKINSON      CLEAR     52  46  80 S8        29.87S
GARRISON         N/A     53  49  86 W6        29.83R
HETTINGER ARPT CLEAR     53  46  77 S3        29.92R
$$

NDZ004>008-012>016-024-026-027-054-020400-
NORTHEAST NORTH DAKOTA

CITY           SKY/WX    TMP DP  RH WIND       PRES   REMARKS
GRAND FORKS    PTCLDY    59  53  80 W3        29.76R
GRND FRKS AFB  CLEAR     55  53  92 W6        29.77R
DEVILS LAKE    CLEAR     61  52  72 SW8       29.78R
$$

NDZ022-023-025-028>030-036>039-047>053-020400-
SOUTHEAST NORTH DAKOTA

CITY           SKY/WX    TMP DP  RH WIND       PRES   REMARKS
FARGO          CLEAR     59  56  89 S5        29.80R
JAMESTOWN      CLEAR     58  51  78 CALM      29.83R
$$



USA.gov is the U.S. government's official web portal to all federal, state and local government web resources and services.